TimeMST,TemperatureF,Dew PointF,Humidity,Sea Level PressureIn,VisibilityMPH,Wind Direction,Wind SpeedMPH,Gust SpeedMPH,PrecipitationIn,Events,Conditions,WindDirDegrees,DateUTC
12:15 AM,14.0,10.4,86,29.92,10.0,Calm,Calm,-,N/A,,Overcast,0,2012-12-23 07:15:00
12:35 AM,14.0,10.4,86,29.91,10.0,Calm,Calm,-,N/A,,Overcast,0,2012-12-23 07:35:00
12:55 AM,14.0,10.4,86,29.91,10.0,Calm,Calm,-,N/A,,Overcast,0,2012-12-23 07:55:00
1:15 AM,15.8,10.4,79,29.91,10.0,Calm,Calm,-,N/A,,Overcast,0,2012-12-23 08:15:00
1:35 AM,15.8,12.2,86,29.92,10.0,SE,4.6,-,N/A,,Overcast,140,2012-12-23 08:35:00
1:55 AM,17.6,10.4,73,29.92,10.0,East,4.6,-,N/A,,Overcast,100,2012-12-23 08:55:00
2:15 AM,17.6,12.2,79,29.93,7.0,East,4.6,-,N/A,Snow,Light Snow,90,2012-12-23 09:15:00
2:35 AM,15.8,10.4,79,29.94,10.0,East,4.6,-,N/A,,Overcast,100,2012-12-23 09:35:00
2:55 AM,15.8,10.4,79,29.96,10.0,Calm,Calm,-,N/A,,Overcast,0,2012-12-23 09:55:00
3:15 AM,15.8,10.4,79,29.97,7.0,Calm,Calm,-,N/A,Snow,Light Snow,0,2012-12-23 10:15:00
3:35 AM,15.8,10.4,79,29.95,7.0,Calm,Calm,-,N/A,Snow,Light Snow,0,2012-12-23 10:35:00
3:55 AM,14.0,8.6,79,29.95,10.0,Calm,Calm,-,N/A,,Scattered Clouds,0,2012-12-23 10:55:00
4:15 AM,12.2,8.6,85,29.93,10.0,SE,3.5,-,N/A,,Clear,140,2012-12-23 11:15:00
4:35 AM,12.2,8.6,85,29.93,10.0,Calm,Calm,-,N/A,,Mostly Cloudy,0,2012-12-23 11:35:00
4:55 AM,8.6,5.0,85,29.94,10.0,Calm,Calm,-,N/A,,Scattered Clouds,0,2012-12-23 11:55:00
5:15 AM,3.2,1.4,92,29.95,10.0,WNW,4.6,-,N/A,,Scattered Clouds,300,2012-12-23 12:15:00
5:35 AM,3.2,1.4,92,29.95,10.0,WNW,6.9,-,N/A,,Overcast,300,2012-12-23 12:35:00
5:55 AM,1.4,1.4,100,29.94,10.0,NW,8.1,-,N/A,,Scattered Clouds,320,2012-12-23 12:55:00
6:15 AM,3.2,1.4,92,29.93,10.0,NW,8.1,-,N/A,,Clear,320,2012-12-23 13:15:00
6:35 AM,5.0,3.2,92,29.94,10.0,NW,5.8,-,N/A,,Clear,320,2012-12-23 13:35:00
6:55 AM,6.8,5.0,92,29.95,10.0,East,6.9,-,N/A,,Clear,90,2012-12-23 13:55:00
7:15 AM,5.0,3.2,92,29.96,10.0,ESE,4.6,-,N/A,,Clear,110,2012-12-23 14:15:00
7:35 AM,5.0,3.2,92,29.97,2.0,SE,8.1,-,N/A,Snow,Light Snow,140,2012-12-23 14:35:00
7:55 AM,5.0,3.2,92,29.99,7.0,NE,4.6,-,N/A,,Mostly Cloudy,50,2012-12-23 14:55:00
8:15 AM,6.8,5.0,92,30.00,10.0,SE,4.6,-,N/A,,Mostly Cloudy,140,2012-12-23 15:15:00
8:35 AM,8.6,5.0,85,30.01,10.0,SSE,4.6,-,N/A,,Mostly Cloudy,150,2012-12-23 15:35:00
8:55 AM,8.6,6.8,92,30.01,10.0,East,4.6,-,N/A,,Scattered Clouds,100,2012-12-23 15:55:00
9:15 AM,10.4,8.6,92,30.01,10.0,Calm,Calm,-,N/A,,Clear,0,2012-12-23 16:15:00
9:35 AM,12.2,10.4,92,30.02,10.0,Calm,Calm,-,N/A,,Clear,0,2012-12-23 16:35:00
9:55 AM,14.0,8.6,79,30.03,10.0,ESE,4.6,-,N/A,,Clear,120,2012-12-23 16:55:00
10:15 AM,17.6,10.4,73,30.04,10.0,Calm,Calm,-,N/A,,Clear,0,2012-12-23 17:15:00
10:35 AM,19.4,10.4,68,30.05,10.0,NE,3.5,-,N/A,,Scattered Clouds,50,2012-12-23 17:35:00
10:55 AM,19.4,12.2,74,30.04,10.0,East,4.6,-,N/A,,Scattered Clouds,100,2012-12-23 17:55:00
11:15 AM,21.2,12.2,68,30.02,10.0,East,6.9,-,N/A,,Clear,90,2012-12-23 18:15:00
11:35 AM,21.2,12.2,68,30.03,10.0,ESE,5.8,-,N/A,,Clear,120,2012-12-23 18:35:00
11:55 AM,23.0,14.0,68,30.03,10.0,SE,5.8,-,N/A,,Clear,130,2012-12-23 18:55:00
12:15 PM,23.0,14.0,68,30.03,10.0,East,4.6,-,N/A,,Clear,100,2012-12-23 19:15:00
12:35 PM,24.8,14.0,64,30.01,10.0,East,6.9,-,N/A,,Clear,80,2012-12-23 19:35:00
12:55 PM,24.8,14.0,64,30.01,10.0,East,4.6,-,N/A,,Clear,100,2012-12-23 19:55:00
1:15 PM,24.8,14.0,64,30.00,10.0,East,5.8,-,N/A,,Clear,90,2012-12-23 20:15:00
1:35 PM,24.8,14.0,64,29.98,10.0,East,3.5,-,N/A,,Clear,90,2012-12-23 20:35:00
1:55 PM,28.4,15.8,59,29.98,10.0,East,6.9,-,N/A,,Clear,90,2012-12-23 20:55:00
2:15 PM,26.6,14.0,59,29.98,10.0,East,4.6,-,N/A,,Clear,100,2012-12-23 21:15:00
2:35 PM,26.6,15.8,64,29.98,10.0,East,4.6,-,N/A,,Clear,100,2012-12-23 21:35:00
2:55 PM,26.6,15.8,64,29.98,10.0,East,4.6,-,N/A,,Clear,100,2012-12-23 21:55:00
3:15 PM,26.6,14.0,59,29.97,10.0,East,5.8,-,N/A,,Clear,80,2012-12-23 22:15:00
3:35 PM,26.6,14.0,59,29.97,10.0,East,4.6,-,N/A,,Clear,80,2012-12-23 22:35:00
3:55 PM,26.6,14.0,59,29.97,10.0,Calm,Calm,-,N/A,,Mostly Cloudy,0,2012-12-23 22:55:00
4:15 PM,21.2,12.2,68,29.95,10.0,East,4.6,-,N/A,,Mostly Cloudy,90,2012-12-23 23:15:00
4:35 PM,21.2,12.2,68,29.95,10.0,Calm,Calm,-,N/A,,Mostly Cloudy,0,2012-12-23 23:35:00
4:55 PM,21.2,14.0,74,29.95,10.0,Calm,Calm,-,N/A,,Overcast,0,2012-12-23 23:55:00
5:15 PM,17.6,10.4,73,29.93,10.0,ESE,4.6,-,N/A,,Scattered Clouds,110,2012-12-24 00:15:00
5:35 PM,14.0,8.6,79,29.94,10.0,Calm,Calm,-,N/A,,Mostly Cloudy,0,2012-12-24 00:35:00
5:55 PM,14.0,8.6,79,29.94,10.0,NNE,3.5,-,N/A,,Overcast,20,2012-12-24 00:55:00
6:15 PM,14.0,8.6,79,29.93,10.0,Calm,Calm,-,N/A,,Overcast,0,2012-12-24 01:15:00
6:35 PM,12.2,10.4,92,29.92,10.0,Calm,Calm,-,N/A,,Overcast,0,2012-12-24 01:35:00
6:55 PM,14.0,10.4,86,29.92,10.0,SW,3.5,-,N/A,,Overcast,230,2012-12-24 01:55:00
7:15 PM,14.0,10.4,86,29.91,10.0,Calm,Calm,-,N/A,,Overcast,0,2012-12-24 02:15:00
7:55 PM,19.4,12.2,74,29.89,10.0,Calm,Calm,-,N/A,,Overcast,0,2012-12-24 02:55:00
8:15 PM,21.2,10.4,63,29.89,10.0,Calm,Calm,-,N/A,,Overcast,0,2012-12-24 03:15:00
8:35 PM,19.4,12.2,74,29.89,10.0,SE,3.5,-,N/A,,Overcast,140,2012-12-24 03:35:00
8:55 PM,19.4,12.2,74,29.89,10.0,SE,3.5,-,N/A,,Overcast,130,2012-12-24 03:55:00
9:15 PM,19.4,15.8,86,29.88,2.0,ESE,4.6,-,N/A,Snow,Light Snow,110,2012-12-24 04:15:00
9:35 PM,19.4,17.6,93,29.88,2.0,SE,5.8,-,N/A,Snow,Light Snow,130,2012-12-24 04:35:00
9:55 PM,19.4,19.4,100,29.87,2.0,East,3.5,-,N/A,Snow,Light Snow,90,2012-12-24 04:55:00
10:15 PM,19.4,19.4,100,29.87,1.5,ENE,4.6,-,N/A,Snow,Light Snow,60,2012-12-24 05:15:00
10:35 PM,19.4,19.4,100,29.87,1.0,ENE,4.6,-,N/A,Snow,Snow,70,2012-12-24 05:35:00
10:55 PM,19.4,19.4,100,29.85,1.2,East,3.5,-,N/A,Snow,Light Snow,80,2012-12-24 05:55:00
11:15 PM,19.4,19.4,100,29.85,1.5,East,5.8,-,N/A,Snow,Light Snow,100,2012-12-24 06:15:00
11:35 PM,19.4,19.4,100,29.84,1.0,East,3.5,-,N/A,Snow,Light Snow,100,2012-12-24 06:35:00
11:55 PM,19.4,19.4,100,29.83,0.8,East,4.6,-,N/A,Snow,Light Snow,100,2012-12-24 06:55:00